Location: Exeidioux
(45.6312°N, 1.6819°E)
Time: 13:19:44
(UTC+00:00)

SJ-6B - Pass Details

Date: 03 March 2021
Orbit: 508 x 581 km, 97.6° (Epoch: 11 April)

Event Time Altitude Azimuth Distance (km) Brightness Sun altitude
Exits shadow 19:22:55 36° 131° (SE) 917 3.5 -18.2°
Maximum altitude 19:24:17 55° 73° (ENE) 693 2.9 -18.4°
Drops below altitude 10° 19:28:16 10° 356° (N) 1,876 5.7 -19.1°
Sets 19:30:26 0° 352° (N) 2,768 6.7 -19.5°
